Weather History for North Wilkesboro, NC

Change the Weather History Date:

Tuesday, February 5, 2013

  Actual Average Record
Temperature  
Mean Temperature 42 °F -  
Max Temperature 55 °F 49 °F 75 °F (1962)
Min Temperature 30 °F 23 °F 6 °F (1965)
Degree Days  
Heating Degree Days 22    
Moisture  
Dew Point 29 °F    
Average Humidity 67    
Maximum Humidity 93    
Minimum Humidity 44    
Precipitation  
Precipitation 0.00 in - - ()
Sea Level Pressure  
Sea Level Pressure 29.97 in    
Wind  
Wind Speed 2 mph (WNW)    
Max Wind Speed 20 mph    
Max Gust Speed 28 mph    
Visibility 10 miles    
Events      
Averages and records for this station are not official NWS values.
T = Trace of Precipitation, MM = Missing Value Source: NWS Daily Summary

Daily Weather History Graph

Daily Weather History Graph

Search for Another Location

Airport:

Trip Planner

Search our weather history database for the weather conditions in past years. The results will help you decide how hot, cold, wet, or windy it might be!

Date:

Astronomy

Feb. 05, 2013 Rise Set
Actual Time 7:21 AM EST 5:55 PM EST
Civil Twilight 6:55 AM EST 6:22 PM EST
Nautical Twilight 6:24 AM EST 6:52 PM EST
Astronomical Twilight 5:54 AM EST 7:22 PM EST
Moon 2:58 AM EST (2/5) 1:14 PM EST (2/5)
Length of Visible Light 11h 27m
Length of Day
10h 33m
Waning Crescent, 27% of the Moon is Illuminated
Feb 5
Waning Crescent
Feb 10
New
Feb 17
First Quarter
Feb 25
Full
Mar 4
Last Quarter

Hourly Weather History & Observations

Time (EST) Temp. Windchill Dew Point Humidity Pressure Visibility Wind Dir Wind Speed Gust Speed Precip Events Conditions
12:15 AM 35.6 °F 32.8 °F 24.8 °F 65% 30.00 in 10.0 mi West 3.5 mph - N/A   Overcast
12:35 AM 35.6 °F - 26.6 °F 70% 29.99 in 10.0 mi Calm Calm - N/A   Overcast
12:55 AM 35.6 °F - 26.6 °F 70% 29.98 in 10.0 mi Calm Calm - N/A   Overcast
1:15 AM 33.8 °F - 28.4 °F 81% 29.98 in 10.0 mi Calm Calm - N/A   Overcast
1:35 AM 33.8 °F - 28.4 °F 81% 29.97 in 10.0 mi Calm Calm - N/A   Overcast
1:55 AM 33.8 °F - 26.6 °F 75% 29.97 in 10.0 mi Calm Calm - N/A   Scattered Clouds
2:15 AM 33.8 °F - 24.8 °F 70% 29.97 in 10.0 mi Calm Calm - N/A   Mostly Cloudy
2:35 AM 33.8 °F - 24.8 °F 70% 29.96 in 10.0 mi Calm Calm - N/A   Overcast
2:55 AM 33.8 °F - 24.8 °F 70% 29.96 in 10.0 mi Calm Calm - N/A   Overcast
3:15 AM 33.8 °F - 24.8 °F 70% 29.95 in 10.0 mi Calm Calm - N/A   Mostly Cloudy
3:35 AM 32.0 °F - 24.8 °F 75% 29.95 in 10.0 mi Calm Calm - N/A   Clear
3:55 AM 32.0 °F - 24.8 °F 75% 29.95 in 10.0 mi Calm Calm - N/A   Clear
4:15 AM 30.2 °F - 24.8 °F 80% 29.95 in 10.0 mi Calm Calm - N/A   Clear
4:35 AM 30.2 °F - 24.8 °F 80% 29.95 in 10.0 mi Calm Calm - N/A   Clear
4:55 AM 30.2 °F - 26.6 °F 86% 29.95 in 10.0 mi Calm Calm - N/A   Scattered Clouds
5:15 AM 30.2 °F - 24.8 °F 80% 29.96 in 10.0 mi Calm Calm - N/A   Scattered Clouds
5:35 AM 30.2 °F - 24.8 °F 80% 29.96 in 10.0 mi Calm Calm - N/A   Scattered Clouds
5:55 AM 30.2 °F 26.7 °F 26.6 °F 86% 29.97 in 10.0 mi WNW 3.5 mph - N/A   Mostly Cloudy
6:15 AM 32.0 °F - 26.6 °F 80% 29.96 in 10.0 mi Calm Calm - N/A   Mostly Cloudy
6:35 AM 32.0 °F - 26.6 °F 80% 29.96 in 10.0 mi Calm Calm - N/A   Overcast
7:15 AM 32.0 °F 28.7 °F 26.6 °F 80% 29.97 in 10.0 mi NW 3.5 mph - N/A   Mostly Cloudy
7:35 AM 32.0 °F - 26.6 °F 80% 29.97 in 10.0 mi Calm Calm - N/A   Scattered Clouds
7:55 AM 32.0 °F - 26.6 °F 80% 29.97 in 10.0 mi Calm Calm - N/A   Scattered Clouds
8:15 AM 32.0 °F - 26.6 °F 80% 29.98 in 10.0 mi Calm Calm - N/A   Scattered Clouds
8:35 AM 32.0 °F - 28.4 °F 87% 29.98 in 10.0 mi Calm Calm - N/A   Scattered Clouds
8:55 AM 33.8 °F - 28.4 °F 81% 29.98 in 10.0 mi Calm Calm - N/A   Scattered Clouds
9:15 AM 37.4 °F - 28.4 °F 70% 29.98 in 10.0 mi Calm Calm - N/A   Mostly Cloudy
9:35 AM 37.4 °F - 30.2 °F 75% 29.99 in 10.0 mi Calm Calm - N/A   Overcast
9:55 AM 37.4 °F - 28.4 °F 70% 29.99 in 10.0 mi Calm Calm - N/A   Overcast
10:15 AM 41.0 °F - 28.4 °F 61% 29.99 in 10.0 mi Calm Calm - N/A   Overcast
10:55 AM 44.6 °F - 30.2 °F 57% 30.00 in 10.0 mi Calm Calm - N/A   Overcast
11:15 AM 46.4 °F 45.2 °F 32.0 °F 57% 29.99 in 10.0 mi SW 3.5 mph - N/A   Mostly Cloudy
11:55 AM 51.8 °F - 32.0 °F 47% 29.98 in 10.0 mi Calm Calm - N/A   Clear
12:15 PM 53.6 °F - 32.0 °F 44% 29.97 in 10.0 mi SW 8.1 mph - N/A   Clear
12:35 PM 55.4 °F - 33.8 °F 44% 29.97 in 10.0 mi NW 8.1 mph - N/A   Mostly Cloudy
12:55 PM 55.4 °F - 33.8 °F 44% 29.95 in 10.0 mi WNW 10.4 mph 16.1 mph N/A   Mostly Cloudy
1:15 PM 53.6 °F - 33.8 °F 47% 29.95 in 10.0 mi WNW 15.0 mph 24.2 mph N/A   Scattered Clouds
1:55 PM 53.6 °F - 33.8 °F 47% 29.95 in 10.0 mi WNW 19.6 mph 27.6 mph N/A   Clear
2:15 PM 53.6 °F - 33.8 °F 47% 29.95 in 10.0 mi NW 13.8 mph 26.5 mph N/A   Clear
2:35 PM 53.6 °F - 32.0 °F 44% 29.95 in 10.0 mi West 10.4 mph 23.0 mph N/A   Clear
2:55 PM 53.6 °F - 32.0 °F 44% 29.95 in 10.0 mi WNW 15.0 mph 25.3 mph N/A   Clear
3:15 PM 53.6 °F - 32.0 °F 44% 29.95 in 10.0 mi NW 11.5 mph 18.4 mph N/A   Clear
3:35 PM 53.6 °F - 32.0 °F 44% 29.96 in 10.0 mi WNW 8.1 mph 18.4 mph N/A   Clear
3:55 PM 53.6 °F - 32.0 °F 44% 29.95 in 10.0 mi NW 12.7 mph 18.4 mph N/A   Clear
4:15 PM 51.8 °F - 32.0 °F 47% 29.95 in 10.0 mi NW 6.9 mph - N/A   Clear
4:55 PM 51.8 °F - 32.0 °F 47% 29.96 in 10.0 mi WNW 10.4 mph - N/A   Clear
5:15 PM 50.0 °F - 32.0 °F 50% 29.96 in 10.0 mi WNW 8.1 mph - N/A   Clear
6:15 PM 46.4 °F 44.3 °F 32.0 °F 57% 29.97 in 10.0 mi NNW 4.6 mph - N/A   Clear
6:35 PM 46.4 °F - 32.0 °F 57% 29.98 in 10.0 mi Calm Calm - N/A   Clear
6:55 PM 44.6 °F - 32.0 °F 61% 29.98 in 10.0 mi Calm Calm - N/A   Clear
7:15 PM 42.8 °F - 32.0 °F 66% 29.98 in 10.0 mi Calm Calm - N/A   Clear
7:35 PM 42.8 °F - 32.0 °F 66% 29.99 in 10.0 mi Calm Calm - N/A   Clear
7:55 PM 42.8 °F - 32.0 °F 66% 29.99 in 10.0 mi Calm Calm - N/A   Clear
8:15 PM 42.8 °F - 32.0 °F 66% 29.99 in 10.0 mi Calm Calm - N/A   Clear
8:35 PM 41.0 °F - 32.0 °F 70% 30.00 in 10.0 mi Calm Calm - N/A   Clear
8:55 PM 41.0 °F - 32.0 °F 70% 30.00 in 10.0 mi Calm Calm - N/A   Clear
9:15 PM 41.0 °F - 32.0 °F 70% 30.00 in 10.0 mi Calm Calm - N/A   Clear
9:35 PM 41.0 °F - 32.0 °F 70% 30.00 in 10.0 mi Calm Calm - N/A   Clear
9:55 PM 39.2 °F - 32.0 °F 75% 30.00 in 10.0 mi Calm Calm - N/A   Clear
10:15 PM 39.2 °F - 32.0 °F 75% 30.00 in 10.0 mi Calm Calm - N/A   Clear
10:35 PM 37.4 °F - 32.0 °F 81% 30.01 in 10.0 mi Calm Calm - N/A   Clear
10:55 PM 35.6 °F - 30.2 °F 81% 30.01 in 10.0 mi Calm Calm - N/A   Clear
11:15 PM 33.8 °F - 30.2 °F 87% 30.01 in 10.0 mi Calm Calm - N/A   Clear
11:35 PM 33.8 °F - 30.2 °F 87% 30.01 in 10.0 mi Calm Calm - N/A   Clear
11:55 PM 32.0 °F - 30.2 °F 93% 30.01 in 10.0 mi Calm Calm - N/A   Clear